Location: Boss Branch
(32.3799°N, 97.2508°W)
Time: 23:18:11
(UTC+00:00)

JUGNU - Pass Details

Date: 14 December 2024
Orbit: 834 x 861 km, 20.0° (Epoch: 19 January)

Event Time Altitude Azimuth Distance (km) Brightness Sun altitude
Exits shadow 10:30:46 20° 157° (SSE) 1,813 ? -35.4°
Drops below altitude 10° 10:33:32 10° 131° (SE) 2,427 ? -34.8°
Sets 10:36:33 0° 118° (ESE) 3,359 ? -34.2°
